GW1920 Weather Reports


Display with metric or nautical units.
time (UTC)temp
F
wind
direction
speed
MPH
gust
MPH
rain 1hr
in
rain 24hr
in
rain mn
in
humidity
%
barometer
mb
20260510185808 57 347 0.0 1.0 0.00 0.02 0.02 89 1014.1
20260510185307 58 319 2.0 3.0 0.00 0.02 0.02 89 1014.1
20260510184803 59 354 0.0 0.0 0.00 0.02 0.02 90 1014.1
20260510184300 58 13 0.0 1.0 0.00 0.02 0.02 90 1014.0
20260510183755 58 9 0.0 0.0 0.00 0.02 0.02 88 1014.1
20260510183250 57 354 0.0 1.0 0.00 0.02 0.02 91 1014.2
20260510182747 57 351 0.0 0.0 0.00 0.02 0.02 90 1014.2
20260510182243 56 358 0.0 0.0 0.00 0.02 0.02 92 1014.2
20260510181740 56 358 1.0 1.0 0.00 0.02 0.02 92 1014.1
20260510181237 56 7 0.0 0.0 0.00 0.02 0.02 94 1014.4
20260510180733 55 354 0.0 0.0 0.00 0.02 0.02 94 1014.1
20260510180230 55 349 1.0 1.0 0.00 0.02 0.02 93 1014.2
20260510175727 55 353 0.0 0.0 0.00 0.02 0.02 95 1014.2
20260510175222 55 352 0.0 0.0 0.00 0.02 0.02 95 1014.4
20260510174720 55 350 0.0 1.0 0.00 0.02 0.02 95 1014.3
20260510174217 55 350 0.0 0.0 0.00 0.02 0.02 96 1014.4
20260510173713 55 350 0.0 0.0 0.00 0.02 0.02 96 1014.3
20260510173209 54 350 0.0 0.0 0.00 0.02 0.02 96 1014.3
20260510172704 55 351 0.0 0.0 0.00 0.02 0.02 97 1014.2
20260510172201 55 343 2.0 2.0 0.00 0.02 0.02 96 1014.5
20260510171657 55 343 1.0 1.0 0.00 0.02 0.02 96 1014.5
20260510171155 54 347 0.0 0.0 0.00 0.02 0.02 97 1014.5
20260510170652 54 349 0.0 1.0 0.00 0.02 0.02 97 1014.5
20260510170147 54 348 1.0 1.0 0.00 0.02 0.02 98 1014.5
20260510165644 54 348 0.0 0.0 0.00 0.02 0.02 98 1014.5
20260510165140 54 344 2.0 2.0 0.00 0.02 0.02 99 1014.5
20260510164638 54 350 0.0 0.0 0.00 0.02 0.02 99 1014.3
20260510164135 54 356 0.0 0.0 0.00 0.02 0.02 99 1014.7
20260510163629 54 357 1.0 1.0 0.00 0.02 0.02 99 1014.5
20260510163125 53 352 0.0 0.0 0.00 0.02 0.02 99 1014.5
20260510162619 54 348 0.0 0.0 0.00 0.02 0.02 99 1014.2
20260510162117 54 347 0.0 0.0 0.00 0.02 0.02 99 1014.3
20260510161612 54 347 0.0 0.0 0.00 0.02 0.02 99 1014.3
20260510161109 53 345 0.0 0.0 0.00 0.02 0.02 99 1014.6
20260510160606 53 351 0.0 0.0 0.00 0.02 0.02 99 1014.4
20260510160106 53 351 0.0 0.0 0.00 0.02 0.02 99 1014.5
20260510155603 53 351 0.0 0.0 0.00 0.02 0.02 99 1014.2
20260510155054 53 351 0.0 0.0 0.00 0.02 0.02 99 1014.5
20260510154549 53 351 0.0 0.0 0.00 0.02 0.02 99 1014.3
20260510154045 53 351 0.0 0.0 0.00 0.02 0.02 99 1014.1
20260510153539 53 351 0.0 0.0 0.00 0.02 0.02 99 1014.2
20260510153037 53 351 0.0 0.0 0.00 0.02 0.02 99 1014.2
20260510152533 53 351 0.0 0.0 0.00 0.02 0.02 99 1014.2
20260510152030 53 351 0.0 0.0 0.00 0.02 0.02 99 1014.0
20260510151526 52 350 1.0 1.0 0.00 0.02 0.02 99 1014.2
20260510151024 52 341 1.0 2.0 0.00 0.02 0.02 99 1014.1
20260510150518 53 349 0.0 0.0 0.00 0.02 0.02 99 1014.0
20260510150015 53 348 0.0 0.0 0.00 0.02 0.02 99 1014.0
20260510145512 53 353 0.0 0.0 0.00 0.02 0.02 99 1014.2
20260510145008 53 354 0.0 0.0 0.00 0.02 0.02 99 1014.1
20260510144506 53 355 0.0 0.0 0.00 0.02 0.02 99 1014.0
20260510144002 53 356 0.0 0.0 0.00 0.02 0.02 99 1013.9
20260510143457 53 357 0.0 0.0 0.00 0.02 0.02 99 1014.0
20260510142954 53 357 0.0 0.0 0.00 0.02 0.02 99 1014.0
20260510142450 52 357 0.0 0.0 0.00 0.02 0.02 99 1013.8
20260510141947 52 357 0.0 0.0 0.00 0.02 0.02 99 1013.7
20260510141444 52 357 0.0 0.0 0.00 0.02 0.02 99 1013.5
20260510140941 52 357 0.0 0.0 0.00 0.02 0.02 99 1013.8
20260510140437 52 357 0.0 0.0 0.00 0.02 0.02 99 1013.7
20260510135936 52 357 0.0 0.0 0.00 0.02 0.02 99 1013.5
20260510135432 52 357 0.0 0.0 0.00 0.02 0.02 99 1013.5
20260510134930 52 357 0.0 0.0 0.00 0.02 0.02 99 1013.4
20260510134426 52 357 0.0 0.0 0.00 0.02 0.02 99 1013.5
20260510133922 52 357 0.0 0.0 0.00 0.02 0.02 99 1013.3
20260510133419 52 357 0.0 0.0 0.00 0.02 0.02 99 1013.2
20260510132914 52 357 0.0 0.0 0.00 0.02 0.02 99 1013.3
20260510132413 52 357 0.0 0.0 0.00 0.02 0.02 99 1013.3
20260510131909 52 357 0.0 0.0 0.00 0.02 0.02 99 1013.2
20260510131407 52 357 0.0 0.0 0.00 0.02 0.02 99 1013.2
20260510130903 52 357 0.0 0.0 0.00 0.02 0.02 99 1013.2
20260510130401 52 357 0.0 0.0 0.00 0.02 0.02 99 1013.3
20260510125857 52 357 0.0 0.0 0.00 0.02 0.02 99 1012.9
20260510125353 52 357 0.0 0.0 0.00 0.02 0.02 99 1013.0
20260510124850 52 357 0.0 0.0 0.00 0.02 0.02 99 1013.1
20260510124346 52 357 0.0 0.0 0.00 0.02 0.02 99 1012.9
20260510123842 52 357 0.0 0.0 0.07 0.02 0.02 99 1013.0
20260510123338 52 357 0.0 0.0 0.07 0.02 0.02 99 1013.1
20260510122835 52 357 0.0 0.0 0.00 0.01 0.01 99 1013.0
20260510122330 52 358 0.0 0.0 0.00 0.01 0.01 99 1013.3
20260510121827 52 358 0.0 0.0 0.00 0.01 0.01 99 1013.1
20260510121325 52 358 0.0 0.0 0.00 0.01 0.01 99 1013.0
20260510120822 52 357 0.0 0.0 0.00 0.01 0.01 99 1013.0
20260510120319 52 358 0.0 0.0 0.00 0.01 0.01 99 1013.1
20260510115814 53 357 0.0 0.0 0.00 0.01 0.01 99 1012.8
20260510115312 53 8 0.0 0.0 0.00 0.01 0.01 99 1013.1
20260510114813 53 8 0.0 0.0 0.00 0.01 0.01 99 1013.2
20260510114310 53 8 0.0 0.0 0.00 0.01 0.01 99 1013.2
20260510113805 53 8 0.0 0.0 0.00 0.01 0.01 99 1013.2
20260510113302 53 8 0.0 0.0 0.00 0.01 0.01 99 1013.1
20260510112759 53 8 0.0 0.0 0.07 0.01 0.01 99 1013.0
20260510112256 53 8 0.0 0.0 0.07 0.01 0.01 99 1013.1
20260510111751 53 8 0.0 0.0 0.00 0.00 0.00 99 1013.0
20260510111248 52 8 0.0 0.0 0.00 0.00 0.00 99 1013.0
20260510110748 52 8 0.0 0.0 0.00 0.00 0.00 99 1012.9
20260510110246 52 8 0.0 0.0 0.00 0.00 0.00 99 1013.1
20260510105746 52 8 0.0 0.0 0.00 0.00 0.00 99 1013.1
20260510105241 52 8 0.0 0.0 0.00 0.00 0.00 99 1013.0
20260510104737 52 8 0.0 0.0 0.00 0.00 0.00 99 1012.9
20260510104235 52 8 0.0 0.0 0.00 0.00 0.00 99 1013.3
20260510103731 52 8 0.0 0.0 0.00 0.00 0.00 99 1013.2
20260510103229 52 8 0.0 0.0 0.00 0.00 0.00 99 1013.1
20260510102729 52 8 0.0 0.0 0.00 0.00 0.00 99 1013.1
20260510102225 52 8 0.0 0.0 0.00 0.00 0.00 99 1013.0
20260510101723 53 8 0.0 0.0 0.00 0.00 0.00 99 1013.0
20260510101221 53 8 0.0 0.0 0.00 0.00 0.00 99 1013.1
20260510100716 52 7 0.0 0.0 0.00 0.00 0.00 99 1012.9
20260510100215 52 7 0.0 0.0 0.00 0.00 0.00 99 1013.1
20260510095710 52 7 0.0 0.0 0.00 0.00 0.00 99 1012.9
20260510095205 52 7 0.0 0.0 0.00 0.00 0.00 99 1013.0
20260510094703 52 7 0.0 0.0 0.00 0.00 0.00 99 1012.9
20260510094200 52 7 0.0 0.0 0.00 0.00 0.00 99 1012.9
20260510093655 52 7 0.0 0.0 0.00 0.00 0.00 99 1012.6
20260510093153 52 7 0.0 0.0 0.00 0.00 0.00 99 1012.8
20260510092649 52 7 0.0 0.0 0.00 0.00 0.00 99 1012.7
20260510092144 52 7 0.0 0.0 0.00 0.00 0.00 99 1012.8
20260510091641 52 7 0.0 0.0 0.00 0.00 0.00 99 1012.7
20260510091137 52 7 0.0 0.0 0.00 0.00 0.00 99 1012.6
20260510090634 52 8 0.0 0.0 0.00 0.00 0.00 99 1012.7
20260510090130 52 8 0.0 0.0 0.00 0.00 0.00 99 1012.8
20260510085625 52 6 0.0 0.0 0.00 0.00 0.00 99 1012.6
20260510085121 52 7 0.0 0.0 0.00 0.00 0.00 99 1012.7
20260510084618 52 14 0.0 0.0 0.00 0.00 0.00 99 1012.6
20260510084114 52 0 0.0 0.0 0.00 0.00 0.00 99 1012.7
20260510083611 52 0 0.0 0.0 0.00 0.00 0.00 99 1012.6
20260510083107 52 0 0.0 0.0 0.00 0.00 0.00 99 1012.8
20260510082604 52 12 0.0 0.0 0.00 0.00 0.00 99 1012.6
20260510082059 52 12 0.0 0.0 0.00 0.00 0.00 99 1012.9
20260510081554 52 358 0.0 0.0 0.00 0.00 0.00 99 1012.7
20260510081050 53 11 0.0 0.0 0.00 0.00 0.00 99 1012.7
20260510080550 53 16 0.0 0.0 0.00 0.00 0.00 99 1012.9
20260510080047 52 3 0.0 0.0 0.00 0.00 0.00 99 1012.7
20260510075544 53 3 0.0 0.0 0.00 0.00 0.00 99 1012.7
20260510075041 53 3 0.0 0.0 0.00 0.00 0.00 99 1012.7
20260510074539 53 3 0.0 0.0 0.00 0.00 0.00 99 1012.9
20260510074034 53 3 0.0 0.0 0.00 0.00 0.00 99 1012.6
20260510073530 53 3 0.0 0.0 0.00 0.00 0.00 99 1012.8
20260510073027 53 3 0.0 0.0 0.00 0.00 0.00 99 1013.0
20260510072524 53 3 0.0 0.0 0.00 0.00 0.00 99 1012.8
20260510072019 53 3 0.0 0.0 0.00 0.00 0.00 99 1013.1
20260510071515 53 3 0.0 0.0 0.00 0.00 0.00 99 1013.1
20260510071014 53 3 0.0 0.0 0.00 0.00 0.00 99 1012.8
20260510070511 53 3 0.0 0.0 0.00 0.00 0.00 99 1012.9
20260510070007 53 3 0.0 0.0 0.00 0.00 0.00 99 1012.8
20260510065504 53 4 0.0 0.0 0.00 0.00 0.00 99 1012.7
20260510065000 53 2 0.0 0.0 0.00 0.00 0.00 99 1013.0
20260510064457 53 1 0.0 0.0 0.00 0.00 0.00 99 1012.8
20260510063954 53 345 0.0 0.0 0.00 0.00 0.00 99 1012.8
20260510063450 53 350 0.0 0.0 0.00 0.00 0.00 99 1012.8
20260510062948 53 349 0.0 0.0 0.00 0.00 0.00 99 1012.8
20260510062443 53 353 0.0 0.0 0.00 0.00 0.00 99 1012.7
20260510061938 53 345 0.0 0.0 0.00 0.00 0.00 99 1012.6
20260510061435 53 349 0.0 0.0 0.00 0.00 0.00 99 1012.5
20260510060932 53 349 0.0 0.0 0.00 0.00 0.00 99 1012.7
20260510060429 53 349 0.0 0.0 0.00 0.00 0.00 99 1012.7
20260510055925 53 349 0.0 0.0 0.00 0.00 0.00 99 1012.8
20260510055420 53 349 0.0 0.0 0.00 0.00 0.00 99 1012.8
20260510054919 53 349 0.0 0.0 0.00 0.00 0.00 99 1012.8
20260510054414 53 347 0.0 0.0 0.00 0.00 0.00 99 1012.7
20260510053909 53 346 0.0 0.0 0.00 0.00 0.00 99 1012.9
20260510053405 53 24 0.0 0.0 0.00 0.00 0.00 99 1013.0
20260510052902 53 7 0.0 0.0 0.00 0.00 0.00 99 1013.4
20260510052357 53 7 0.0 0.0 0.00 0.00 0.00 98 1013.0
20260510051854 53 7 0.0 0.0 0.00 0.00 0.00 98 1013.3
20260510051350 53 6 0.0 0.0 0.00 0.00 0.00 98 1013.2
20260510050847 53 6 0.0 0.0 0.00 0.00 0.00 99 1013.0
20260510050344 53 10 0.0 0.0 0.00 0.00 0.00 99 1013.1
20260510045841 53 10 0.0 0.0 0.00 0.00 0.00 99 1013.1
20260510045338 54 12 0.0 0.0 0.00 0.00 0.00 99 1012.9
20260510044835 54 12 0.0 0.0 0.00 0.00 0.00 99 1012.8
20260510044332 54 12 0.0 0.0 0.00 0.00 0.00 99 1012.6
20260510043828 54 12 0.0 0.0 0.00 0.00 0.00 99 1012.8
20260510043324 54 12 0.0 0.0 0.00 0.00 0.00 99 1012.7
20260510042822 54 12 0.0 0.0 0.00 0.00 0.00 99 1012.4
20260510042318 54 12 0.0 0.0 0.00 0.00 0.00 98 1012.4
20260510041814 54 13 0.0 0.0 0.00 0.00 0.00 98 1012.5
20260510041312 54 12 0.0 0.0 0.00 0.00 0.00 98 1012.5
20260510040809 54 12 0.0 0.0 0.00 0.00 0.00 98 1012.5
20260510040305 54 13 0.0 0.0 0.00 0.00 0.00 98 1012.5
20260510035801 54 10 0.0 0.0 0.00 0.00 0.00 97 1012.5
20260510035257 54 11 0.0 0.0 0.00 0.00 0.00 97 1012.3
20260510034753 54 11 0.0 0.0 0.00 0.00 0.00 97 1012.5
20260510034250 54 11 0.0 0.0 0.00 0.00 0.00 97 1012.2
20260510033747 54 13 0.0 0.0 0.00 0.00 0.00 97 1012.3
20260510033244 54 349 0.0 0.0 0.00 0.00 0.00 96 1012.4
20260510032740 54 349 0.0 0.0 0.00 0.00 0.00 96 1012.2
20260510032237 54 349 0.0 0.0 0.00 0.00 0.00 96 1012.3
20260510031732 54 349 0.0 0.0 0.00 0.00 0.00 96 1012.3
20260510031228 54 349 0.0 0.0 0.00 0.00 0.00 96 1012.1
20260510030727 54 354 0.0 0.0 0.00 0.00 0.00 96 1012.5
20260510030225 54 354 0.0 0.0 0.00 0.00 0.00 96 1012.3
20260510025722 55 359 0.0 0.0 0.00 0.00 0.00 96 1012.1
20260510025214 55 359 0.0 0.0 0.00 0.00 0.00 95 1012.2
20260510024711 55 359 0.0 0.0 0.00 0.00 0.00 95 1011.9
20260510024207 55 359 0.0 0.0 0.00 0.00 0.00 95 1012.2
20260510023703 55 359 0.0 0.0 0.00 0.00 0.00 95 1012.1
20260510023200 55 359 0.0 0.0 0.00 0.00 0.00 95 1012.0
20260510022656 55 359 0.0 0.0 0.00 0.00 0.00 95 1012.0
20260510022150 55 359 0.0 0.0 0.00 0.00 0.00 94 1012.1
20260510021645 55 359 0.0 0.0 0.00 0.00 0.00 94 1012.1
20260510021138 55 17 0.0 0.0 0.00 0.00 0.00 94 1012.1
20260510020632 55 28 0.0 1.0 0.00 0.00 0.00 94 1012.0
20260510020127 55 14 0.0 0.0 0.00 0.00 0.00 93 1012.2
20260510015624 55 358 0.0 0.0 0.00 0.00 0.00 93 1012.1
20260510015120 55 357 0.0 0.0 0.00 0.00 0.00 94 1012.3
20260510014616 55 358 0.0 0.0 0.00 0.00 0.00 94 1012.3
20260510014113 55 345 0.0 0.0 0.00 0.00 0.00 94 1012.5
20260510013608 55 345 0.0 0.0 0.00 0.00 0.00 93 1012.3
20260510013104 55 345 0.0 0.0 0.00 0.00 0.00 93 1012.7
20260510012603 55 4 0.0 0.0 0.00 0.00 0.00 93 1012.4
20260510012100 55 324 1.0 1.0 0.00 0.00 0.00 94 1012.5
20260510011559 55 355 0.0 0.0 0.00 0.00 0.00 93 1012.7
20260510011055 55 249 1.0 2.0 0.00 0.00 0.00 93 1012.6
20260510010552 55 359 0.0 0.0 0.00 0.00 0.00 94 1012.3
20260510010049 55 0 0.0 0.0 0.00 0.00 0.00 94 1012.4
20260510005544 55 333 0.0 0.0 0.00 0.00 0.00 94 1012.5
20260510005042 55 248 1.0 2.0 0.00 0.00 0.00 94 1012.6
20260510004540 55 334 0.0 0.0 0.00 0.00 0.00 94 1012.8
20260510004038 55 358 0.0 0.0 0.00 0.00 0.00 94 1012.6
20260510003534 55 299 1.0 1.0 0.00 0.00 0.00 94 1012.6
20260510003029 55 339 1.0 1.0 0.00 0.00 0.00 94 1012.5
20260510002525 55 347 0.0 1.0 0.00 0.00 0.00 93 1012.7
20260510002022 56 330 1.0 1.0 0.00 0.00 0.00 93 1012.8
20260510001520 56 340 0.0 0.0 0.00 0.00 0.00 93 1012.7
20260510001018 56 1 0.0 0.0 0.00 0.00 0.00 92 1012.8
20260510000513 56 305 0.0 1.0 0.00 0.00 0.00 92 1012.6
20260510000010 56 328 0.0 0.0 0.00 0.00 0.00 92 1012.5
20260509235507 56 331 0.0 0.0 0.00 0.00 0.00 92 1012.7
20260509235003 56 321 0.0 1.0 0.00 0.00 0.00 92 1012.6
20260509234500 56 325 1.0 1.0 0.00 0.00 0.00 92 1012.7
20260509233958 56 354 0.0 0.0 0.00 0.00 0.00 92 1012.8
20260509233455 56 18 1.0 1.0 0.00 0.00 0.00 92 1012.7
20260509232950 56 6 0.0 0.0 0.00 0.00 0.00 92 1012.6
20260509232449 56 324 1.0 1.0 0.00 0.00 0.00 92 1012.9
20260509231944 56 345 0.0 0.0 0.00 0.00 0.00 92 1012.8
20260509231441 56 341 0.0 1.0 0.00 0.00 0.00 92 1012.8
20260509230939 56 344 0.0 0.0 0.00 0.00 0.00 93 1012.9
20260509230436 56 334 1.0 1.0 0.00 0.00 0.00 92 1012.8
20260509225932 56 332 1.0 1.0 0.00 0.00 0.00 92 1012.8
20260509225428 56 347 0.0 1.0 0.00 0.00 0.00 92 1012.8
20260509224925 56 337 1.0 1.0 0.00 0.00 0.00 92 1013.0
20260509224420 56 325 3.0 3.0 0.00 0.00 0.00 91 1013.2
20260509223917 56 346 0.0 1.0 0.00 0.00 0.00 91 1012.9
20260509223414 57 321 2.0 2.0 0.00 0.00 0.00 90 1013.0
20260509222911 57 338 2.0 2.0 0.00 0.00 0.00 90 1013.1
20260509222406 57 334 0.0 1.0 0.00 0.00 0.00 90 1012.9
20260509221902 57 319 1.0 1.0 0.00 0.00 0.00 89 1013.0
20260509221400 57 301 1.0 1.0 0.00 0.00 0.00 89 1013.0
20260509220855 57 304 0.0 0.0 0.00 0.00 0.00 89 1012.8
20260509220351 58 24 0.0 1.0 0.00 0.00 0.00 89 1013.0
20260509215847 58 274 1.0 1.0 0.00 0.00 0.00 90 1012.9
20260509215343 57 337 0.0 0.0 0.00 0.00 0.00 90 1012.8
20260509214841 57 318 1.0 1.0 0.00 0.00 0.00 90 1013.0
20260509214338 57 350 1.0 1.0 0.00 0.00 0.00 90 1012.9
20260509213835 57 340 2.0 2.0 0.00 0.00 0.00 90 1013.1
20260509213330 57 290 2.0 2.0 0.00 0.00 0.00 89 1013.0
20260509212828 58 346 0.0 0.0 0.00 0.00 0.00 89 1013.1
20260509212326 58 341 0.0 1.0 0.00 0.00 0.00 89 1013.1
20260509211821 57 342 0.0 0.0 0.00 0.00 0.00 90 1013.0
20260509211317 57 328 1.0 1.0 0.00 0.00 0.00 90 1013.1
20260509210814 57 347 0.0 0.0 0.00 0.00 0.00 90 1013.2
20260509210312 57 342 0.0 0.0 0.00 0.00 0.00 90 1013.4
20260509205811 57 341 0.0 0.0 0.00 0.00 0.00 90 1013.2
20260509205307 57 338 1.0 1.0 0.00 0.00 0.00 90 1013.3
20260509204802 57 338 0.0 0.0 0.00 0.00 0.00 90 1013.4
20260509204259 57 336 1.0 1.0 0.00 0.00 0.00 90 1013.4
20260509203755 56 344 0.0 0.0 0.00 0.00 0.00 90 1013.3
20260509203253 56 334 0.0 0.0 0.00 0.00 0.00 91 1013.5
20260509202748 56 338 0.0 0.0 0.00 0.00 0.00 91 1013.4
20260509202244 56 341 0.0 0.0 0.00 0.00 0.00 92 1013.6
20260509201739 56 346 1.0 1.0 0.00 0.00 0.00 93 1013.4
20260509201236 56 354 0.0 0.0 0.00 0.00 0.00 93 1013.4
20260509200732 55 355 0.0 0.0 0.00 0.00 0.00 93 1013.5
20260509200227 55 350 0.0 0.0 0.00 0.00 0.00 94 1013.4
20260509195724 55 346 0.0 0.0 0.00 0.00 0.00 95 1013.5
20260509195218 55 328 2.0 2.0 0.00 0.00 0.00 94 1013.4
20260509194713 55 343 0.0 1.0 0.00 0.00 0.00 94 1013.4
20260509194210 55 345 1.0 1.0 0.00 0.00 0.00 94 1013.7
20260509193706 56 333 3.0 3.0 0.00 0.00 0.00 92 1013.4
20260509193201 55 351 1.0 1.0 0.00 0.00 0.00 93 1013.4
20260509192657 56 345 2.0 2.0 0.00 0.00 0.00 93 1013.4
20260509192153 56 338 1.0 1.0 0.00 0.00 0.00 93 1013.6
20260509191648 55 342 2.0 2.0 0.00 0.00 0.00 92 1013.2
20260509191144 56 336 3.0 3.0 0.00 0.00 0.00 92 1013.1
20260509190641 56 346 1.0 2.0 0.00 0.00 0.00 92 1013.2
20260509190138 56 338 1.0 1.0 0.00 0.00 0.00 93 1013.4